Weather History for KCSQ - March, 2013

Change the Weather History Date:

Tuesday, March 26, 2013

  Actual Average (KLWD) Record (KLWD)
Temperature  
Mean Temperature 27 °F 44 °F  
Max Temperature 35 °F 55 °F 85 °F (1991)
Min Temperature 19 °F 34 °F 5 °F (1964)
Degree Days  
Heating Degree Days 38 21  
Month to date heating degree days 676  
Since 1 July heating degree days 5393  
Cooling Degree Days 0 0  
Month to date cooling degree days 0  
Year to date cooling degree days 0  
Moisture  
Dew Point 18 °F    
Average Humidity 67    
Maximum Humidity 80    
Minimum Humidity 48    
Precipitation  
Precipitation 0.00 in 0.09 in 1.40 in (1983)
Month to date precipitation 1.80  
Sea Level Pressure  
Sea Level Pressure 30.30 in    
Wind  
Wind Speed 8 mph (NW)    
Max Wind Speed 14 mph    
Max Gust Speed 18 mph    
Visibility 10 miles    
Events      
T = Trace of Precipitation, MM = Missing Value Source: NWS Daily Summary

Daily Weather History Graph

Daily Weather History Graph

Search for Another Location

Airport or City:

Trip Planner

Search our weather history database for the weather conditions in past years. The results will help you decide how hot, cold, wet, or windy it might be!

Date:

Astronomy

Mar. 26, 2013 Rise Set
Actual Time 7:10 AM CDT 7:36 PM CDT
Civil Twilight 6:42 AM CDT 8:03 PM CDT
Nautical Twilight 6:10 AM CDT 8:36 PM CDT
Astronomical Twilight 5:37 AM CDT 9:09 PM CDT
Moon 7:14 PM CDT (3/26) 6:27 AM CDT (3/26)
Length of Visible Light 13h 21m
Length of Day
12h 26m
Waxing Gibbous, 99% of the Moon is Illuminated
Mar 26
Waxing Gibbous
Mar 27
Full
Apr 2
Last Quarter
Apr 10
New
Apr 18
First Quarter

Hourly Weather History & Observations

Time (CDT) Temp. Windchill Dew Point Humidity Pressure Visibility Wind Dir Wind Speed Gust Speed Precip Events Conditions
12:15 AM 28.4 °F 19.1 °F 21.2 °F 74% 30.27 in 10.0 mi NW 10.4 mph - N/A   Overcast
12:35 AM 28.4 °F 18.0 °F 21.2 °F 74% 30.28 in 10.0 mi NW 12.7 mph - N/A   Overcast
12:55 AM 28.4 °F 19.1 °F 21.2 °F 74% 30.28 in 10.0 mi NW 10.4 mph 18.4 mph N/A   Overcast
1:15 AM 26.6 °F 15.7 °F 21.2 °F 80% 30.28 in 10.0 mi NW 12.7 mph - N/A   Overcast
1:35 AM 26.6 °F 15.7 °F 21.2 °F 80% 30.28 in 10.0 mi NW 12.7 mph - N/A   Overcast
1:55 AM 26.6 °F 15.7 °F 21.2 °F 80% 30.28 in 10.0 mi NW 12.7 mph - N/A   Overcast
2:15 AM 26.6 °F 16.2 °F 21.2 °F 80% 30.29 in 10.0 mi NW 11.5 mph - N/A   Overcast
2:35 AM 26.6 °F 16.8 °F 21.2 °F 80% 30.29 in 10.0 mi NW 10.4 mph - N/A   Overcast
2:55 AM 26.6 °F 17.5 °F 21.2 °F 80% 30.29 in 10.0 mi NW 9.2 mph - N/A   Overcast
3:15 AM 26.6 °F 16.8 °F 21.2 °F 80% 30.29 in 10.0 mi NNW 10.4 mph - N/A   Overcast
3:35 AM 26.6 °F 15.2 °F 17.6 °F 69% 30.29 in 10.0 mi NNW 13.8 mph 18.4 mph N/A   Overcast
3:55 AM 26.6 °F 15.7 °F 17.6 °F 69% 30.29 in 10.0 mi NNW 12.7 mph - N/A   Overcast
4:15 AM 24.8 °F 15.3 °F 17.6 °F 74% 30.29 in 10.0 mi NW 9.2 mph - N/A   Overcast
4:35 AM 24.8 °F 14.6 °F 15.8 °F 69% 30.29 in 10.0 mi NW 10.4 mph - N/A   Scattered Clouds
4:55 AM 23.0 °F 12.4 °F 15.8 °F 74% 30.29 in 10.0 mi NNW 10.4 mph - N/A   Scattered Clouds
5:15 AM 21.2 °F 10.9 °F 15.8 °F 80% 30.29 in 10.0 mi NNW 9.2 mph - N/A   Clear
5:35 AM 21.2 °F 11.7 °F 14.0 °F 74% 30.29 in 10.0 mi NNW 8.1 mph - N/A   Clear
5:55 AM 19.4 °F 8.6 °F 12.2 °F 74% 30.30 in 10.0 mi NNW 9.2 mph - N/A   Clear
6:15 AM 21.2 °F 10.1 °F 14.0 °F 74% 30.30 in 10.0 mi NNW 10.4 mph - N/A   Clear
6:35 AM 21.2 °F 10.9 °F 14.0 °F 74% 30.30 in 10.0 mi NNW 9.2 mph - N/A   Clear
6:55 AM 19.4 °F 8.6 °F 12.2 °F 74% 30.31 in 10.0 mi NNW 9.2 mph - N/A   Clear
7:15 AM 19.4 °F 9.5 °F 14.0 °F 80% 30.31 in 10.0 mi NNW 8.1 mph - N/A   Scattered Clouds
7:35 AM 19.4 °F - 12.2 °F 74% 30.32 in 10.0 mi Calm Calm - N/A   Scattered Clouds
7:55 AM 19.4 °F 9.5 °F 12.2 °F 74% 30.33 in 10.0 mi NNW 8.1 mph - N/A   Clear
8:15 AM 21.2 °F 16.4 °F 14.0 °F 74% 30.33 in 10.0 mi NNW 3.5 mph - N/A   Clear
8:35 AM 21.2 °F 16.4 °F 14.0 °F 74% 30.33 in 10.0 mi NNW 3.5 mph - N/A   Clear
8:55 AM 23.0 °F 13.1 °F 14.0 °F 68% 30.33 in 10.0 mi NNW 9.2 mph - N/A   Clear
9:15 AM 24.8 °F 14.6 °F 14.0 °F 64% 30.34 in 10.0 mi NNW 10.4 mph - N/A   Clear
9:35 AM 24.8 °F 15.3 °F 14.0 °F 64% 30.34 in 10.0 mi NNW 9.2 mph - N/A   Clear
9:55 AM 24.8 °F 16.1 °F 15.8 °F 69% 30.34 in 10.0 mi NNW 8.1 mph - N/A   Clear
10:15 AM 26.6 °F 16.8 °F 15.8 °F 64% 30.34 in 10.0 mi NNW 10.4 mph - N/A   Clear
10:35 AM 26.6 °F 17.5 °F 15.8 °F 64% 30.35 in 10.0 mi NW 9.2 mph - N/A   Clear
10:55 AM 28.4 °F 24.6 °F 15.8 °F 59% 30.35 in 10.0 mi NNW 3.5 mph 9.2 mph N/A   Clear
11:15 AM 28.4 °F 23.3 °F 15.8 °F 59% 30.36 in 10.0 mi NW 4.6 mph - N/A   Clear
11:35 AM 28.4 °F 22.2 °F 15.8 °F 59% 30.36 in 10.0 mi WNW 5.8 mph - N/A   Scattered Clouds
11:55 AM 30.2 °F 21.3 °F 17.6 °F 60% 30.36 in 10.0 mi WNW 10.4 mph - N/A   Scattered Clouds
12:15 PM 30.2 °F 21.3 °F 17.6 °F 60% 30.35 in 10.0 mi West 10.4 mph - N/A   Scattered Clouds
12:35 PM 30.2 °F - 17.6 °F 60% 30.35 in 10.0 mi Calm Calm - N/A   Scattered Clouds
12:55 PM 30.2 °F 20.8 °F 17.6 °F 60% 30.34 in 10.0 mi West 11.5 mph - N/A   Scattered Clouds
1:15 PM 30.2 °F 26.7 °F 17.6 °F 60% 30.34 in 10.0 mi WNW 3.5 mph - N/A   Mostly Cloudy
1:35 PM 32.0 °F 24.8 °F 17.6 °F 55% 30.33 in 10.0 mi West 8.1 mph - N/A   Scattered Clouds
1:55 PM 32.0 °F - 17.6 °F 55% 30.33 in 10.0 mi Calm Calm - N/A   Mostly Cloudy
2:15 PM 33.8 °F 27.7 °F 17.6 °F 52% 30.33 in 10.0 mi WSW 6.9 mph - N/A   Overcast
2:35 PM 33.8 °F - 17.6 °F 52% 30.32 in 10.0 mi Calm Calm - N/A   Overcast
2:55 PM 33.8 °F 26.4 °F 19.4 °F 56% 30.32 in 10.0 mi West 9.2 mph - N/A   Mostly Cloudy
3:15 PM 35.6 °F 28.0 °F 19.4 °F 52% 30.31 in 10.0 mi West 10.4 mph - N/A   Mostly Cloudy
3:35 PM 35.6 °F 29.9 °F 19.4 °F 52% 30.31 in 10.0 mi West 6.9 mph - N/A   Scattered Clouds
3:55 PM 35.6 °F 31.7 °F 19.4 °F 52% 30.30 in 10.0 mi West 4.6 mph - N/A   Clear
4:15 PM 35.6 °F - 17.6 °F 48% 30.29 in 10.0 mi Calm Calm - N/A   Scattered Clouds
4:35 PM 35.6 °F - 19.4 °F 52% 30.29 in 10.0 mi Calm Calm - N/A   Clear
4:55 PM 35.6 °F - 19.4 °F 52% 30.28 in 10.0 mi Calm Calm - N/A   Scattered Clouds
5:15 PM 35.6 °F - 19.4 °F 52% 30.28 in 10.0 mi Calm Calm - N/A   Clear
5:35 PM 35.6 °F - 19.4 °F 52% 30.28 in 10.0 mi Calm Calm - N/A   Scattered Clouds
5:55 PM 35.6 °F - 19.4 °F 52% 30.28 in 10.0 mi Calm Calm - N/A   Scattered Clouds
6:15 PM 35.6 °F - 19.4 °F 52% 30.28 in 10.0 mi Calm Calm - N/A   Clear
6:35 PM 35.6 °F - 19.4 °F 52% 30.28 in 10.0 mi Calm Calm - N/A   Clear
6:55 PM 33.8 °F - 19.4 °F 56% 30.27 in 10.0 mi Calm Calm - N/A   Clear
7:15 PM 33.8 °F - 19.4 °F 56% 30.27 in 10.0 mi Calm Calm - N/A   Clear
7:35 PM 33.8 °F - 19.4 °F 56% 30.27 in 10.0 mi Calm Calm - N/A   Clear
7:55 PM 30.2 °F - 21.2 °F 69% 30.26 in 10.0 mi Calm Calm - N/A   Clear
8:15 PM 30.2 °F - 21.2 °F 69% 30.27 in 10.0 mi Calm Calm - N/A   Clear
8:35 PM 28.4 °F - 21.2 °F 74% 30.27 in 10.0 mi Calm Calm - N/A   Clear
8:55 PM 28.4 °F - 21.2 °F 74% 30.27 in 10.0 mi Calm Calm - N/A   Clear
9:15 PM 28.4 °F - 21.2 °F 74% 30.27 in 10.0 mi Calm Calm - N/A   Clear
9:35 PM 28.4 °F - 21.2 °F 74% 30.28 in 10.0 mi Calm Calm - N/A   Clear
9:55 PM 28.4 °F - 21.2 °F 74% 30.28 in 10.0 mi Calm Calm - N/A   Clear
10:15 PM 28.4 °F - 19.4 °F 69% 30.29 in 10.0 mi Calm Calm - N/A   Clear
10:35 PM 26.6 °F - 21.2 °F 80% 30.29 in 10.0 mi Calm Calm - N/A   Clear
10:55 PM 26.6 °F - 21.2 °F 80% 30.30 in 10.0 mi Calm Calm - N/A   Clear
11:15 PM 26.6 °F - 21.2 °F 80% 30.30 in 10.0 mi Calm Calm - N/A   Clear
11:35 PM 26.6 °F - 19.4 °F 74% 30.31 in 10.0 mi Calm Calm - N/A   Clear
11:55 PM 26.6 °F - 19.4 °F 74% 30.31 in 10.0 mi Calm Calm - N/A   Clear